Indianapolis, IN

2:23 PM EDT on May 27, 2017 (GMT -0400)
Indianapolis International

Weather History for KIND - July, 2013

Change the Weather History Date:

Wednesday, July 3, 2013

  Actual Average Record
Temperature  
Mean Temperature 71 °F 75 °F  
Max Temperature 80 °F 85 °F 100 °F (1911)
Min Temperature 62 °F 66 °F 49 °F (1968)
Degree Days  
Heating Degree Days 0 0  
Month to date heating degree days 0 0  
Since 1 June heating degree days 9 16  
Since 1 July heating degree days 0 0  
Cooling Degree Days 6 10  
Month to date cooling degree days 15 30  
Year to date cooling degree days 370 340  
Since 1 June cooling degree days 241 256  
Growing Degree Days 21 (Base 50)    
Moisture  
Dew Point 62 °F    
Average Humidity 77    
Maximum Humidity 100    
Minimum Humidity 54    
Precipitation  
Precipitation 0.00 in 0.15 in 1.89 in (1926)
Month to date precipitation 1.00 0.47  
Year to date precipitation 26.49 22.12  
Snow  
Snow 0.00 in 0.00 in - ()
Month to date snowfall 0.0 0.0  
Since 1 June snowfall 0.0 0.0  
Since 1 July snowfall 0.0 0.0  
Snow Depth 0.00 in    
Sea Level Pressure  
Sea Level Pressure 30.04 in    
Wind  
Wind Speed 7 mph (South)    
Max Wind Speed 18 mph    
Max Gust Speed 26 mph    
Visibility 5 miles    
Events Fog    
T = Trace of Precipitation, MM = Missing Value Source: NWS Daily Summary

Daily Weather History Graph

Daily Weather History Graph

Search for Another Location

Airport or City:

Trip Planner

Search our weather history database for the weather conditions in past years. The results will help you decide how hot, cold, wet, or windy it might be!

Date:

Astronomy

Jul. 03, 2013 Rise Set
Actual Time 6:22 AM EDT 9:16 PM EDT
Civil Twilight 5:49 AM EDT 9:48 PM EDT
Nautical Twilight 5:08 AM EDT 10:29 PM EDT
Astronomical Twilight 4:21 AM EDT 11:16 PM EDT
Moon 2:59 AM EDT (7/3) 5:26 PM EDT (7/3)
Length of Visible Light 15h 59m
Length of Day
14h 54m
Waning Crescent, 18% of the Moon is Illuminated
Jul 3
Waning Crescent
Jul 8
New
Jul 15
First Quarter
Jul 22
Full
Jul 29
Last Quarter

Hourly Weather History & Observations

Time (EDT) Temp. Dew Point Humidity Pressure Visibility Wind Dir Wind Speed Gust Speed Precip Events Conditions
12:54 AM 64.9 °F 63.0 °F 93% 30.01 in 7.0 mi Calm Calm - N/A   Scattered Clouds
1:45 AM 64.4 °F 62.6 °F 94% 30.01 in 2.5 mi Calm Calm - N/A   Mostly Cloudy
1:54 AM 64.0 °F 62.1 °F 93% 30.00 in 2.5 mi Calm Calm - N/A   Mostly Cloudy
2:29 AM 64.4 °F 62.6 °F 94% 30.01 in 1.5 mi Calm Calm - N/A   Overcast
2:46 AM 62.6 °F 62.6 °F 100% 30.00 in 0.5 mi Calm Calm - N/A Fog Fog
2:54 AM 63.0 °F 62.1 °F 97% 29.99 in 0.2 mi Calm Calm - N/A Fog Fog
3:07 AM 62.6 °F 60.8 °F 94% 30.00 in 0.1 mi Calm Calm - N/A Fog Fog
3:17 AM 64.4 °F 62.6 °F 94% 30.00 in 0.1 mi Calm Calm - N/A Fog Fog
3:54 AM 64.9 °F 63.0 °F 93% 29.99 in 0.1 mi Calm Calm - N/A Fog Fog
4:01 AM 64.4 °F 62.6 °F 94% 30.00 in 0.2 mi Calm Calm - N/A Fog Fog
4:16 AM 64.4 °F 62.6 °F 94% 30.01 in 0.1 mi ESE 3.5 mph - N/A Fog Fog
4:31 AM 64.4 °F 62.6 °F 94% 30.01 in 0.2 mi ESE 3.5 mph - N/A Fog Fog
4:54 AM 66.0 °F 62.1 °F 87% 30.00 in 0.2 mi SE 4.6 mph - N/A Fog Fog
5:10 AM 64.4 °F 62.6 °F 94% 30.02 in 0.2 mi Calm Calm - N/A Fog Fog
5:20 AM 66.2 °F 62.6 °F 88% 30.02 in 0.2 mi East 3.5 mph - N/A Fog Fog
5:31 AM 66.2 °F 62.6 °F 88% 30.02 in 0.2 mi Calm Calm - N/A Fog Fog
5:54 AM 66.0 °F 62.1 °F 87% 30.01 in 0.2 mi Calm Calm - N/A Fog Fog
6:07 AM 66.2 °F 62.6 °F 88% 30.03 in 0.2 mi Calm Calm - N/A Fog Fog
6:15 AM 66.2 °F 62.6 °F 88% 30.03 in 0.1 mi Calm Calm - N/A Fog Fog
6:54 AM 66.0 °F 62.1 °F 87% 30.02 in 0.1 mi Calm Calm - N/A Fog Fog
7:19 AM 66.2 °F 62.6 °F 88% 30.04 in 0.8 mi Calm Calm - N/A   Haze
7:52 AM 68.0 °F 62.6 °F 83% 30.05 in 0.8 mi SSE 3.5 mph - N/A   Haze
7:54 AM 68.0 °F 63.0 °F 84% 30.04 in 0.8 mi SSE 3.5 mph - N/A   Haze
8:01 AM 68.0 °F 64.4 °F 88% 30.05 in 1.8 mi SSE 4.6 mph - N/A   Overcast
8:12 AM 69.8 °F 64.4 °F 83% 30.06 in 2.0 mi South 5.8 mph - N/A   Haze
8:15 AM 69.8 °F 64.4 °F 83% 30.06 in 2.0 mi South 5.8 mph - N/A   Haze
8:28 AM 69.8 °F 64.4 °F 83% 30.06 in 3.0 mi South 8.1 mph - N/A   Haze
8:37 AM 69.8 °F 64.4 °F 83% 30.07 in 4.0 mi South 9.2 mph - N/A   Haze
8:54 AM 69.1 °F 63.0 °F 81% 30.06 in 5.0 mi SSW 9.2 mph - N/A   Haze
9:09 AM 69.8 °F 62.6 °F 78% 30.07 in 6.0 mi SSW 8.1 mph - N/A   Haze
9:31 AM 71.6 °F 64.4 °F 78% 30.08 in 8.0 mi South 10.4 mph - N/A   Mostly Cloudy
9:54 AM 71.1 °F 63.0 °F 75% 30.07 in 8.0 mi South 11.5 mph - N/A   Mostly Cloudy
10:54 AM 71.1 °F 62.1 °F 73% 30.08 in 10.0 mi SSW 13.8 mph - N/A   Mostly Cloudy
11:54 AM 72.0 °F 62.1 °F 71% 30.07 in 10.0 mi SW 9.2 mph - N/A   Mostly Cloudy
12:30 PM 71.6 °F 60.8 °F 69% 30.09 in 10.0 mi SSW 11.5 mph - N/A   Overcast
12:54 PM 73.0 °F 61.0 °F 66% 30.08 in 10.0 mi SSW 13.8 mph - N/A   Overcast
1:54 PM 75.9 °F 62.1 °F 62% 30.08 in 10.0 mi SW 11.5 mph 18.4 mph N/A   Overcast
2:54 PM 77.0 °F 62.1 °F 60% 30.07 in 10.0 mi South 13.8 mph - N/A   Overcast
3:54 PM 78.1 °F 62.1 °F 58% 30.06 in 10.0 mi SSW 9.2 mph - N/A   Mostly Cloudy
4:54 PM 79.0 °F 63.0 °F 58% 30.04 in 10.0 mi SSE 12.7 mph - N/A   Mostly Cloudy
5:54 PM 78.1 °F 61.0 °F 56% 30.04 in 10.0 mi South 15.0 mph - N/A   Mostly Cloudy
6:54 PM 77.0 °F 60.1 °F 56% 30.04 in 10.0 mi South 12.7 mph - N/A   Mostly Cloudy
7:54 PM 75.0 °F 61.0 °F 62% 30.04 in 10.0 mi South 9.2 mph - N/A   Mostly Cloudy
8:54 PM 73.0 °F 62.1 °F 68% 30.05 in 10.0 mi SSW 6.9 mph - N/A   Mostly Cloudy
9:54 PM 70.0 °F 62.1 °F 76% 30.06 in 10.0 mi WSW 4.6 mph - N/A   Mostly Cloudy
10:54 PM 70.0 °F 63.0 °F 78% 30.08 in 10.0 mi Calm Calm - N/A   Mostly Cloudy
11:54 PM 69.1 °F 63.0 °F 81% 30.09 in 10.0 mi Calm Calm - N/A   Partly Cloudy